SCP
0 0 0 0 1 0 0 0 0 0 0 0 0 0 0 0 0 0 0 0 0 0 0 0 0 0 0 0 0 0 0 0 0 0 0 0 0 0 0 0 0 0 0 0 -0
0 0 0 0 1 1 1 0 0 0 0 0 0 0 0 0 0 0 0 0 0 0 0 0 0 0 0 0 0 0 0 0 0 0 0 0 0 0 0 0 0 0 0 0 -0
0 0 0 0 1 1 1 1 0 0 0 1 0 0 0 0 0 0 0 0 0 0 0 0 0 0 0 0 0 0 0 0 0 0 0 0 0 0 0 0 0 0 0 0 -0
0 0 0 0 0 1 1 1 0 0 0 0 0 0 0 0 0 0 0 0 0 0 0 0 0 0 0 0 0 0 0 0 0 0 0 0 0 0 0 0 0 0 0 0 -0
0 0 0 0 0 1 1 1 1 0 0 0 0 0 0 0 0 0 0 0 0 0 0 0 0 0 0 0 0 0 0 0 0 0 0 0 0 0 0 0 0 0 0 0 0
0 0 0 0 0 0 1 1 1 1 1 1 0 0 0 0 0 0 0 0 0 0 0 0 0 0 0 0 0 0 0 0 0 0 0 0 0 0 0 0 0 0 0 0 0
0 0 0 0 0 0 1 1 0 1 1 1 0 0 0 0 0 0 0 0 0 0 0 0 0 0 0 0 0 0 0 0 0 0 0 0 0 0 0 0 0 0 0 0 0
0 0 0 0 0 0 1 1 1 1 1 1 1 0 0 0 0 0 0 0 0 0 0 0 0 0 0 0 0 0 0 0 0 0 0 0 0 0 0 0 0 0 0 0 0
0 0 0 0 0 0 0 1 1 1 1 0 0 0 0 0 0 0 0 0 0 0 0 0 0 0 0 0 0 0 0 0 0 0 0 0 0 0 0 0 0 0 0 0 0
0 0 0 0 0 0 0 1 0 0 0 0 0 0 0 0 0 0 0 0 0 0 0 0 0 0 0 0 0 0 0 0 0 0 0 0 0 0 0 0 0 0 0 0 0
0 0 0 0 0 0 0 0 0 0 0 0 0 0 0 0 0 0 0 0 0 0 0 0 0 0 0 0 0 0 0 0 0 0 0 0 0 0 0 0 0 0 0 0 0
0 0 0 0 0 1 0 0 0 0 0 0 0 0 0 0 0 0 0 0 0 0 0 0 0 0 0 0 0 0 0 0 0 0 0 0 0 -0 0 0 0 0 -0 -0 0
0 0 0 0 0 1 0 0 0 0 0 0 0 0 0 0 0 0 0 0 0 0 0 0 0 0 0 0 0 0 0 0 0 0 0 0 -0 -0 0 0 0 0 0 0 -0
0 0 0 0 1 0 0 0 0 0 0 0 0 0 0 0 0 0 0 0 0 0 0 0 0 0 0 0 0 0 0 0 0 0 0 0 -0 -0 -0 0 0 0 0 -0 0
-0 0 0 0 0 0 0 0 0 0 0 0 0 0 0 0 0 0 0 0 0 0 0 0 0 0 0 0 0 0 0 0 0 0 0 0 0 -0 -0 0 0 0 0 0 0
0 0 0 0 0 0 0 0 0 0 0 0 0 0 0 0 0 0 0 0 0 0 0 0 0 0 0 0 0 0 0 0 0 0 0 0 0 -0 0 0 0 0 0 0 0
0 0 0 0 0 0 0 0 0 0 0 0 0 0 0 0 0 0 0 0 0 0 0 0 0 0 0 0 0 0 0 0 0 0 0 0 0 0 0 0 0 0 0 0 0
0 0 0 0 0 0 0 0 0 0 0 0 0 0 0 0 0 0 0 0 0 0 0 0 0 0 0 0 0 0 0 0 0 0 0 0 0 0 -0 -0 0 0 0 0 0
0 0 0 0 0 0 0 0 0 0 0 0 0 0 0 0 0 0 0 0 0 0 0 0 0 0 0 0 0 0 0 0 0 0 0 0 0 0 0 0 0 0 0 0 0
0 0 0 0 0 0 0 0 0 0 0 0 0 0 0 0 0 0 0 0 0 0 0 0 0 0 0 0 0 0 0 0 0 0 0 0 0 0 0 0 0 0 0 0 0
0 0 0 0 0 0 0 0 0 0 0 0 0 0 0 0 0 0 0 0 0 0 0 0 0 0 0 0 0 0 0 0 0 0 0 0 -0 -0 0 0 0 0 0 0 0
0 0 0 0 0 0 0 0 0 0 0 0 0 0 0 0 0 0 0 0 0 0 0 0 0 0 0 0 0 0 0 0 0 0 0 0 0 0 0 0 0 -0 -0 -0 0
0 0 0 0 0 0 0 0 0 0 0 0 0 0 0 0 0 0 0 0 0 0 0 0 0 0 0 0 0 0 0 0 0 0 0 0 0 0 0 0 0 0 0 0 0
0 0 0 0 0 0 0 0 0 0 0 0 0 0 0 0 0 0 0 0 0 0 0 0 0 0 0 0 0 0 0 0 0 0 0 0 0 0 0 0 0 0 -0 0 0
0 0 0 0 0 0 0 0 0 0 0 0 0 0 0 0 0 0 0 0 0 0 0 0 0 0 0 0 0 0 0 0 0 0 0 0 0 -0 0 0 0 0 0 0 0
0 0 0 0 0 0 0 0 0 0 0 0 0 0 0 0 0 0 0 0 0 0 0 0 0 0 0 0 0 0 0 0 0 0 0 0 0 -0 0 0 0 0 0 0 0
0 0 0 0 0 0 0 0 0 0 0 0 0 0 0 0 0 0 0 0 0 0 0 0 0 0 0 0 0 0 0 -0 0 0 0 0 0 0 0 0 0 0 0 0 0
Wind_Speed_500mb
82 71 58 71 73 67 64 60 52 63 63 58 55 53 50 50 51 50 48 40 42 18 19 22 17 5 4 6 4 2 6 2 6 9 7 14 8 9 12 17 18 16 8 8 33
84 82 74 63 72 73 62 64 55 51 61 57 55 60 53 56 52 56 50 46 34 40 21 19 15 9 5 6 7 6 6 13 5 6 6 14 10 22 11 14 15 15 18 13 41
75 89 84 69 66 74 71 59 59 50 52 60 57 57 60 57 53 58 56 41 42 37 25 20 13 12 7 5 10 10 9 7 4 4 8 12 6 15 15 8 20 29 28 26 46
76 75 82 84 68 69 76 67 57 53 47 55 59 55 57 61 24 31 59 52 39 34 32 18 12 10 6 6 8 6 13 9 6 4 3 9 9 9 23 8 8 24 24 31 45
83 83 73 82 70 66 74 72 62 57 54 47 52 53 53 40 33 13 43 55 43 40 37 25 14 8 7 6 8 4 6 10 16 21 12 7 10 8 17 22 12 20 27 31 40
84 80 77 79 73 66 68 73 66 59 57 51 50 54 59 35 18 42 44 57 51 44 39 28 16 9 1 4 10 5 20 18 5 4 10 5 5 5 9 20 25 21 27 32 40
89 85 80 80 79 66 63 71 65 59 56 53 51 53 45 42 21 33 42 50 56 42 36 33 28 18 6 3 16 6 2 8 15 11 7 6 13 11 30 19 27 29 33 35 41
95 86 83 79 82 68 63 65 64 58 55 54 48 55 21 48 36 28 37 41 44 49 43 37 32 20 4 6 2 7 2 5 5 12 8 17 19 11 35 27 29 34 35 39 42
94 89 84 77 81 69 64 61 69 55 50 49 49 42 16 44 40 40 40 53 48 45 36 26 23 5 6 3 2 11 6 8 11 20 6 10 16 14 23 39 43 39 38 39 42
98 92 86 81 83 73 65 63 57 62 49 49 40 21 16 35 58 47 37 46 46 41 26 18 13 4 6 8 18 10 7 7 12 8 5 8 19 15 8 24 46 45 44 44 50
83 98 88 81 84 76 71 68 51 27 55 18 21 9 26 36 59 45 43 52 37 23 10 16 9 15 10 14 3 10 4 9 8 6 7 14 25 18 48 27 33 37 39 42 47
82 103 97 86 86 81 83 82 85 51 27 12 15 16 33 41 25 52 53 29 26 12 21 9 28 32 18 10 4 7 2 5 9 7 7 14 26 18 24 32 52 61 71 70 65
84 97 97 92 88 88 93 84 55 64 18 9 24 27 29 39 23 49 60 25 20 16 22 14 4 24 13 9 12 10 11 6 9 11 7 9 22 21 15 44 63 62 67 69 66
98 107 99 93 94 96 98 69 58 58 8 11 13 17 27 21 4 39 64 34 8 26 20 18 11 26 19 28 29 31 16 19 13 6 9 2 18 15 11 20 22 50 69 81 78
78 113 106 109 101 114 105 79 66 40 14 14 16 16 33 24 26 25 61 29 13 13 15 13 15 26 22 15 25 8 14 13 3 5 6 11 10 12 3 12 18 42 66 68 69
87 110 111 102 87 92 97 89 55 10 14 12 21 23 18 21 8 26 37 20 9 8 1 8 9 23 15 14 26 13 10 6 6 1 18 23 15 11 16 16 16 50 66 66 64
91 116 120 116 94 105 101 82 10 14 7 16 15 22 36 16 11 12 34 36 25 20 19 11 12 4 13 12 7 12 17 5 7 10 18 5 18 38 13 16 26 29 57 60 58
128 126 116 102 100 115 104 30 13 9 13 6 22 30 27 19 16 10 23 29 39 13 6 20 13 37 18 14 8 35 18 9 14 10 8 5 17 14 24 55 62 57 58 49 48
125 118 105 91 106 121 81 29 17 14 17 21 34 34 17 15 14 12 15 23 25 32 20 13 20 8 10 13 27 11 22 3 6 5 4 10 17 17 21 23 40 59 70 82 78
121 97 92 100 115 111 36 22 10 8 17 29 17 21 20 38 13 34 24 18 20 44 16 5 6 11 14 13 21 25 16 7 4 9 10 12 12 25 3 20 30 26 51 77 73
75 48 98 105 115 72 30 10 11 5 9 10 14 13 29 28 22 33 20 12 39 21 40 5 3 4 18 29 37 13 19 11 9 9 9 11 15 17 29 29 36 34 57 56 69
39 9 107 112 23 14 19 18 13 12 14 8 8 8 21 32 26 24 26 31 30 36 30 23 5 7 20 7 18 32 31 28 10 32 9 2 30 7 16 15 15 42 35 46 52
26 39 94 99 10 14 13 11 8 9 8 8 7 2 4 21 14 20 12 22 19 28 20 24 15 17 6 5 5 29 40 36 42 3 30 22 36 9 4 10 28 43 53 45 35
35 12 21 40 11 18 19 13 11 9 4 11 11 8 9 4 9 13 9 4 30 22 38 33 9 18 34 7 9 19 33 43 39 25 47 36 62 42 13 7 25 45 45 39 37
19 7 12 14 7 13 11 15 21 10 6 10 7 10 13 8 4 4 8 7 11 13 8 8 12 25 34 25 20 17 26 48 49 55 35 66 54 78 37 16 35 37 39 34 43
16 17 25 12 38 24 9 18 28 10 14 9 12 15 12 14 16 14 10 6 5 8 2 4 15 8 33 37 41 51 46 40 46 57 48 64 58 77 27 50 54 56 47 50 51
37 46 35 14 9 11 9 9 11 18 11 12 19 12 12 17 13 12 21 25 17 17 19 5 7 11 46 22 25 32 58 63 50 45 43 58 82 25 33 25 46 67 83 80 73
Wind_Direction_500mb
233 234 231 225 221 222 221 223 221 219 219 222 215 209 207 210 213 215 219 225 223 220 221 224 225 235 219 163 134 113 63 203 231 160 234 176 173 157 178 157 179 200 224 217 177
227 233 234 227 222 220 220 218 218 216 217 214 216 212 206 210 214 216 217 218 220 220 226 215 208 195 195 174 157 113 131 216 216 214 217 194 190 161 168 166 215 217 216 206 181
225 226 231 230 221 218 217 216 214 213 214 214 213 212 209 209 207 223 215 215 215 214 216 211 195 175 175 190 179 156 187 241 299 310 261 184 195 176 160 233 214 216 212 198 187
222 221 227 228 222 215 214 214 212 209 210 212 213 213 215 206 203 236 217 220 218 211 209 191 171 156 161 192 199 161 237 243 294 37 251 175 167 202 196 216 253 228 227 202 198
222 219 225 222 220 214 211 212 211 205 208 205 208 208 205 194 199 157 199 212 211 212 208 198 157 171 172 218 166 206 234 234 257 272 280 245 221 208 242 234 267 219 214 216 210
223 221 222 219 218 210 207 207 207 204 205 204 206 202 208 214 198 222 229 210 208 204 198 201 170 185 249 230 193 238 234 246 241 252 260 242 267 185 258 237 239 220 222 220 218
221 220 221 214 214 208 203 203 203 200 201 204 202 196 204 213 215 201 192 222 201 198 182 192 197 170 177 225 226 225 306 325 245 227 225 195 284 216 235 243 238 232 229 229 227
216 217 217 211 210 207 199 198 198 197 197 197 198 198 188 200 189 185 182 189 201 218 220 200 192 180 156 300 79 153 156 238 276 162 222 161 259 239 231 233 238 232 228 230 233
214 213 213 208 205 202 193 191 194 193 193 191 196 206 157 204 186 187 188 179 171 178 177 194 184 134 175 243 70 23 202 200 294 207 151 182 258 251 226 222 234 234 233 241 244
215 212 207 205 200 195 189 183 181 189 183 190 201 185 203 191 172 160 166 183 168 185 177 182 160 218 141 211 211 190 195 243 210 241 200 227 259 283 244 221 238 248 251 253 256
210 210 202 199 194 189 178 167 164 166 181 194 181 136 171 180 181 185 177 158 150 141 152 168 164 211 205 212 62 126 212 203 243 263 192 237 254 247 261 253 251 256 256 261 264
225 201 198 195 190 184 174 172 176 187 148 173 181 168 157 171 164 183 179 161 161 167 120 137 216 194 141 108 301 124 212 273 290 265 196 274 269 245 251 254 254 256 261 265 266
217 200 194 193 186 180 179 178 172 156 132 148 162 173 163 174 178 184 181 173 172 164 179 176 152 158 182 179 243 268 230 235 243 330 283 315 271 259 241 244 258 257 260 261 262
213 197 190 184 180 178 181 173 168 159 102 174 177 192 170 181 233 198 189 181 185 204 185 230 179 167 181 214 195 224 190 224 243 311 250 124 285 255 220 237 256 253 252 255 257
219 190 186 186 175 180 179 169 163 153 172 163 162 167 175 179 145 196 195 180 170 158 165 204 170 172 188 179 183 232 160 190 199 190 322 243 285 269 254 243 249 252 255 255 254
208 191 184 180 178 174 167 161 157 108 216 163 147 161 148 186 168 148 190 193 141 148 191 204 179 171 181 157 177 133 96 84 79 224 254 236 210 207 220 202 238 242 247 253 251
195 186 181 175 171 166 161 159 147 187 218 153 163 164 176 170 156 150 187 194 189 189 192 199 192 292 156 132 119 185 145 168 210 194 242 261 195 247 272 243 224 235 254 253 254
199 183 176 172 170 163 159 154 191 167 186 152 165 155 182 149 208 158 165 201 217 211 147 208 203 201 190 201 187 198 187 174 199 197 246 137 234 249 225 233 246 255 255 254 253
175 170 163 168 172 163 158 177 176 176 155 140 145 159 171 191 163 150 194 209 207 205 195 181 232 129 183 171 166 164 215 163 77 90 39 220 280 285 237 251 248 255 256 257 254
163 154 160 166 171 162 164 175 114 134 119 132 147 185 169 179 149 187 174 211 210 203 215 200 279 180 181 157 216 190 127 177 154 187 248 250 258 238 210 243 254 254 254 255 255
147 141 157 166 164 163 177 143 124 128 141 134 138 146 186 181 184 190 206 233 200 184 187 99 228 359 137 203 198 176 191 197 155 183 223 259 257 211 215 221 236 247 254 268 272
132 115 154 162 153 169 166 136 120 141 80 81 87 98 164 175 188 188 217 198 188 156 198 180 177 210 219 13 206 219 219 198 196 217 243 342 267 160 224 266 263 277 296 290 283
108 112 154 159 150 148 125 103 118 131 133 123 109 96 227 164 171 197 149 204 145 175 176 173 221 249 260 325 198 216 217 223 227 347 229 230 258 79 351 314 277 274 280 273 276
120 127 105 160 108 135 137 146 107 93 138 108 117 91 103 146 67 201 162 90 201 186 198 170 192 215 229 235 147 214 217 222 219 233 242 234 258 244 294 308 301 288 291 269 253
116 81 117 141 147 114 92 138 143 143 193 138 52 139 133 114 105 320 169 73 57 103 50 204 247 234 251 264 270 281 243 221 223 233 231 246 247 264 243 249 261 283 306 282 254
106 122 94 82 124 125 136 177 160 141 143 192 124 161 169 149 195 178 136 109 190 78 158 246 239 204 257 257 254 265 263 255 245 235 236 250 256 256 258 244 255 268 272 269 251
110 130 114 110 91 100 162 152 153 119 25 129 128 141 185 223 182 127 139 181 200 175 171 201 227 206 254 251 257 251 238 238 246 249 248 244 246 274 257 227 230 247 259 263 261
Wind_Speed_850mb
82 71 58 71 73 67 64 60 52 63 63 58 55 53 50 50 51 50 48 40 42 18 19 22 17 5 4 6 4 2 6 2 6 9 7 14 8 9 12 17 18 16 8 8 33
84 82 74 63 72 73 62 64 55 51 61 57 55 60 53 56 52 56 50 46 34 40 21 19 15 9 5 6 7 6 6 13 5 6 6 14 10 22 11 14 15 15 18 13 41
75 89 84 69 66 74 71 59 59 50 52 60 57 57 60 57 53 58 56 41 42 37 25 20 13 12 7 5 10 10 9 7 4 4 8 12 6 15 15 8 20 29 28 26 46
76 75 82 84 68 69 76 67 57 53 47 55 59 55 57 61 24 31 59 52 39 34 32 18 12 10 6 6 8 6 13 9 6 4 3 9 9 9 23 8 8 24 24 31 45
83 83 73 82 70 66 74 72 62 57 54 47 52 53 53 40 33 13 43 55 43 40 37 25 14 8 7 6 8 4 6 10 16 21 12 7 10 8 17 22 12 20 27 31 40
84 80 77 79 73 66 68 73 66 59 57 51 50 54 59 35 18 42 44 57 51 44 39 28 16 9 1 4 10 5 20 18 5 4 10 5 5 5 9 20 25 21 27 32 40
89 85 80 80 79 66 63 71 65 59 56 53 51 53 45 42 21 33 42 50 56 42 36 33 28 18 6 3 16 6 2 8 15 11 7 6 13 11 30 19 27 29 33 35 41
95 86 83 79 82 68 63 65 64 58 55 54 48 55 21 48 36 28 37 41 44 49 43 37 32 20 4 6 2 7 2 5 5 12 8 17 19 11 35 27 29 34 35 39 42
94 89 84 77 81 69 64 61 69 55 50 49 49 42 16 44 40 40 40 53 48 45 36 26 23 5 6 3 2 11 6 8 11 20 6 10 16 14 23 39 43 39 38 39 42
98 92 86 81 83 73 65 63 57 62 49 49 40 21 16 35 58 47 37 46 46 41 26 18 13 4 6 8 18 10 7 7 12 8 5 8 19 15 8 24 46 45 44 44 50
83 98 88 81 84 76 71 68 51 27 55 18 21 9 26 36 59 45 43 52 37 23 10 16 9 15 10 14 3 10 4 9 8 6 7 14 25 18 48 27 33 37 39 42 47
82 103 97 86 86 81 83 82 85 51 27 12 15 16 33 41 25 52 53 29 26 12 21 9 28 32 18 10 4 7 2 5 9 7 7 14 26 18 24 32 52 61 71 70 65
84 97 97 92 88 88 93 84 55 64 18 9 24 27 29 39 23 49 60 25 20 16 22 14 4 24 13 9 12 10 11 6 9 11 7 9 22 21 15 44 63 62 67 69 66
98 107 99 93 94 96 98 69 58 58 8 11 13 17 27 21 4 39 64 34 8 26 20 18 11 26 19 28 29 31 16 19 13 6 9 2 18 15 11 20 22 50 69 81 78
78 113 106 109 101 114 105 79 66 40 14 14 16 16 33 24 26 25 61 29 13 13 15 13 15 26 22 15 25 8 14 13 3 5 6 11 10 12 3 12 18 42 66 68 69
87 110 111 102 87 92 97 89 55 10 14 12 21 23 18 21 8 26 37 20 9 8 1 8 9 23 15 14 26 13 10 6 6 1 18 23 15 11 16 16 16 50 66 66 64
91 116 120 116 94 105 101 82 10 14 7 16 15 22 36 16 11 12 34 36 25 20 19 11 12 4 13 12 7 12 17 5 7 10 18 5 18 38 13 16 26 29 57 60 58
128 126 116 102 100 115 104 30 13 9 13 6 22 30 27 19 16 10 23 29 39 13 6 20 13 37 18 14 8 35 18 9 14 10 8 5 17 14 24 55 62 57 58 49 48
125 118 105 91 106 121 81 29 17 14 17 21 34 34 17 15 14 12 15 23 25 32 20 13 20 8 10 13 27 11 22 3 6 5 4 10 17 17 21 23 40 59 70 82 78
121 97 92 100 115 111 36 22 10 8 17 29 17 21 20 38 13 34 24 18 20 44 16 5 6 11 14 13 21 25 16 7 4 9 10 12 12 25 3 20 30 26 51 77 73
75 48 98 105 115 72 30 10 11 5 9 10 14 13 29 28 22 33 20 12 39 21 40 5 3 4 18 29 37 13 19 11 9 9 9 11 15 17 29 29 36 34 57 56 69
39 9 107 112 23 14 19 18 13 12 14 8 8 8 21 32 26 24 26 31 30 36 30 23 5 7 20 7 18 32 31 28 10 32 9 2 30 7 16 15 15 42 35 46 52
26 39 94 99 10 14 13 11 8 9 8 8 7 2 4 21 14 20 12 22 19 28 20 24 15 17 6 5 5 29 40 36 42 3 30 22 36 9 4 10 28 43 53 45 35
35 12 21 40 11 18 19 13 11 9 4 11 11 8 9 4 9 13 9 4 30 22 38 33 9 18 34 7 9 19 33 43 39 25 47 36 62 42 13 7 25 45 45 39 37
19 7 12 14 7 13 11 15 21 10 6 10 7 10 13 8 4 4 8 7 11 13 8 8 12 25 34 25 20 17 26 48 49 55 35 66 54 78 37 16 35 37 39 34 43
16 17 25 12 38 24 9 18 28 10 14 9 12 15 12 14 16 14 10 6 5 8 2 4 15 8 33 37 41 51 46 40 46 57 48 64 58 77 27 50 54 56 47 50 51
37 46 35 14 9 11 9 9 11 18 11 12 19 12 12 17 13 12 21 25 17 17 19 5 7 11 46 22 25 32 58 63 50 45 43 58 82 25 33 25 46 67 83 80 73
Wind_Direction_850mb
233 234 231 225 221 222 221 223 221 219 219 222 215 209 207 210 213 215 219 225 223 220 221 224 225 235 219 163 134 113 63 203 231 160 234 176 173 157 178 157 179 200 224 217 177
227 233 234 227 222 220 220 218 218 216 217 214 216 212 206 210 214 216 217 218 220 220 226 215 208 195 195 174 157 113 131 216 216 214 217 194 190 161 168 166 215 217 216 206 181
225 226 231 230 221 218 217 216 214 213 214 214 213 212 209 209 207 223 215 215 215 214 216 211 195 175 175 190 179 156 187 241 299 310 261 184 195 176 160 233 214 216 212 198 187
222 221 227 228 222 215 214 214 212 209 210 212 213 213 215 206 203 236 217 220 218 211 209 191 171 156 161 192 199 161 237 243 294 37 251 175 167 202 196 216 253 228 227 202 198
222 219 225 222 220 214 211 212 211 205 208 205 208 208 205 194 199 157 199 212 211 212 208 198 157 171 172 218 166 206 234 234 257 272 280 245 221 208 242 234 267 219 214 216 210
223 221 222 219 218 210 207 207 207 204 205 204 206 202 208 214 198 222 229 210 208 204 198 201 170 185 249 230 193 238 234 246 241 252 260 242 267 185 258 237 239 220 222 220 218
221 220 221 214 214 208 203 203 203 200 201 204 202 196 204 213 215 201 192 222 201 198 182 192 197 170 177 225 226 225 306 325 245 227 225 195 284 216 235 243 238 232 229 229 227
216 217 217 211 210 207 199 198 198 197 197 197 198 198 188 200 189 185 182 189 201 218 220 200 192 180 156 300 79 153 156 238 276 162 222 161 259 239 231 233 238 232 228 230 233
214 213 213 208 205 202 193 191 194 193 193 191 196 206 157 204 186 187 188 179 171 178 177 194 184 134 175 243 70 23 202 200 294 207 151 182 258 251 226 222 234 234 233 241 244
215 212 207 205 200 195 189 183 181 189 183 190 201 185 203 191 172 160 166 183 168 185 177 182 160 218 141 211 211 190 195 243 210 241 200 227 259 283 244 221 238 248 251 253 256
210 210 202 199 194 189 178 167 164 166 181 194 181 136 171 180 181 185 177 158 150 141 152 168 164 211 205 212 62 126 212 203 243 263 192 237 254 247 261 253 251 256 256 261 264
225 201 198 195 190 184 174 172 176 187 148 173 181 168 157 171 164 183 179 161 161 167 120 137 216 194 141 108 301 124 212 273 290 265 196 274 269 245 251 254 254 256 261 265 266
217 200 194 193 186 180 179 178 172 156 132 148 162 173 163 174 178 184 181 173 172 164 179 176 152 158 182 179 243 268 230 235 243 330 283 315 271 259 241 244 258 257 260 261 262
213 197 190 184 180 178 181 173 168 159 102 174 177 192 170 181 233 198 189 181 185 204 185 230 179 167 181 214 195 224 190 224 243 311 250 124 285 255 220 237 256 253 252 255 257
219 190 186 186 175 180 179 169 163 153 172 163 162 167 175 179 145 196 195 180 170 158 165 204 170 172 188 179 183 232 160 190 199 190 322 243 285 269 254 243 249 252 255 255 254
208 191 184 180 178 174 167 161 157 108 216 163 147 161 148 186 168 148 190 193 141 148 191 204 179 171 181 157 177 133 96 84 79 224 254 236 210 207 220 202 238 242 247 253 251
195 186 181 175 171 166 161 159 147 187 218 153 163 164 176 170 156 150 187 194 189 189 192 199 192 292 156 132 119 185 145 168 210 194 242 261 195 247 272 243 224 235 254 253 254
199 183 176 172 170 163 159 154 191 167 186 152 165 155 182 149 208 158 165 201 217 211 147 208 203 201 190 201 187 198 187 174 199 197 246 137 234 249 225 233 246 255 255 254 253
175 170 163 168 172 163 158 177 176 176 155 140 145 159 171 191 163 150 194 209 207 205 195 181 232 129 183 171 166 164 215 163 77 90 39 220 280 285 237 251 248 255 256 257 254
163 154 160 166 171 162 164 175 114 134 119 132 147 185 169 179 149 187 174 211 210 203 215 200 279 180 181 157 216 190 127 177 154 187 248 250 258 238 210 243 254 254 254 255 255
147 141 157 166 164 163 177 143 124 128 141 134 138 146 186 181 184 190 206 233 200 184 187 99 228 359 137 203 198 176 191 197 155 183 223 259 257 211 215 221 236 247 254 268 272
132 115 154 162 153 169 166 136 120 141 80 81 87 98 164 175 188 188 217 198 188 156 198 180 177 210 219 13 206 219 219 198 196 217 243 342 267 160 224 266 263 277 296 290 283
108 112 154 159 150 148 125 103 118 131 133 123 109 96 227 164 171 197 149 204 145 175 176 173 221 249 260 325 198 216 217 223 227 347 229 230 258 79 351 314 277 274 280 273 276
120 127 105 160 108 135 137 146 107 93 138 108 117 91 103 146 67 201 162 90 201 186 198 170 192 215 229 235 147 214 217 222 219 233 242 234 258 244 294 308 301 288 291 269 253
116 81 117 141 147 114 92 138 143 143 193 138 52 139 133 114 105 320 169 73 57 103 50 204 247 234 251 264 270 281 243 221 223 233 231 246 247 264 243 249 261 283 306 282 254
106 122 94 82 124 125 136 177 160 141 143 192 124 161 169 149 195 178 136 109 190 78 158 246 239 204 257 257 254 265 263 255 245 235 236 250 256 256 258 244 255 268 272 269 251
110 130 114 110 91 100 162 152 153 119 25 129 128 141 185 223 182 127 139 181 200 175 171 201 227 206 254 251 257 251 238 238 246 249 248 244 246 274 257 227 230 247 259 263 261